Weather History for Cincinnati, OH

Change the Weather History Date:

Saturday, June 7, 2014

  Actual Average Record
Temperature  
Mean Temperature 66 °F -  
Max Temperature 81 °F 81 °F 93 °F (1952)
Min Temperature 51 °F 60 °F 43 °F (1998)
Growing Degree Days 16 (Base 50)    
Moisture  
Dew Point 54 °F    
Average Humidity 72    
Maximum Humidity 100    
Minimum Humidity 38    
Precipitation  
Precipitation 0.00 in - - ()
Sea Level Pressure  
Sea Level Pressure 29.98 in    
Wind  
Wind Speed 2 mph (SE)    
Max Wind Speed 9 mph    
Max Gust Speed -    
Visibility 9 miles    
Events      
Averages and records for this station are not official NWS values.
T = Trace of Precipitation, MM = Missing Value Source: NWS Daily Summary

Daily Weather History Graph

Daily Weather History Graph

Search for Another Location

Airport:

Trip Planner

Search our weather history database for the weather conditions in past years. The results will help you decide how hot, cold, wet, or windy it might be!

Date:

Astronomy

Jun. 07, 2014 Rise Set
Actual Time 6:11 AM EDT 9:01 PM EDT
Civil Twilight 5:39 AM EDT 9:33 PM EDT
Nautical Twilight 4:59 AM EDT 10:13 PM EDT
Astronomical Twilight 4:14 AM EDT 10:59 PM EDT
Moon 3:20 PM EDT (6/7) 2:30 AM EDT (6/7)
Length of Visible Light 15h 53m
Length of Day
14h 49m
Waxing Gibbous, 67% of the Moon is Illuminated
Jun 7
Waxing Gibbous
Jun 13
Full
Jun 19
Last Quarter
Jun 27
New
Jul 5
First Quarter

Hourly Weather History & Observations

Time (EDT) Temp. Heat Index Dew Point Humidity Pressure Visibility Wind Dir Wind Speed Gust Speed Precip Events Conditions
12:53 AM 55.9 °F - 53.1 °F 90% 30.02 in 10.0 mi Calm Calm - N/A   Clear
1:53 AM 55.0 °F - 53.1 °F 93% 30.02 in 10.0 mi Calm Calm - N/A   Clear
2:53 AM 55.0 °F - 53.1 °F 93% 30.01 in 10.0 mi Calm Calm - N/A   Clear
3:53 AM 53.1 °F - 52.0 °F 96% 30.00 in 9.0 mi Calm Calm - N/A   Clear
4:53 AM 52.0 °F - 51.1 °F 97% 30.01 in 9.0 mi Calm Calm - N/A   Clear
5:53 AM 52.0 °F - 51.1 °F 97% 30.02 in 5.0 mi Calm Calm - N/A   Clear
6:11 AM 52.0 °F - 52.0 °F 100% 30.03 in 0.8 mi Calm Calm - N/A   Clear
6:25 AM 51.1 °F - 51.1 °F 100% 30.03 in 2.5 mi Calm Calm - N/A   Clear
6:32 AM 51.1 °F - 51.1 °F 100% 30.04 in 5.0 mi ENE 3.5 mph - N/A   Clear
6:44 AM 52.0 °F - 51.1 °F 97% 30.05 in 2.5 mi Calm Calm - N/A   Clear
6:53 AM 53.1 °F - 52.0 °F 96% 30.05 in 8.0 mi Calm Calm - N/A   Clear
7:53 AM 59.0 °F - 55.4 °F 88% 30.06 in 10.0 mi Calm Calm - N/A   Clear
8:53 AM 64.4 °F - 55.4 °F 73% 30.07 in 10.0 mi Calm Calm - N/A   Clear
9:53 AM 69.1 °F - 57.0 °F 65% 30.06 in 10.0 mi Calm Calm - N/A   Clear
10:53 AM 75.0 °F - 54.0 °F 48% 30.04 in 10.0 mi SSW 6.9 mph - N/A   Clear
11:53 AM 78.1 °F - 55.0 °F 45% 30.03 in 10.0 mi Variable 5.8 mph - N/A   Clear
12:53 PM 78.1 °F - 52.0 °F 40% 30.01 in 10.0 mi Variable 5.8 mph - N/A   Clear
1:53 PM 79.0 °F - 52.0 °F 39% 29.98 in 10.0 mi ESE 9.2 mph - N/A   Clear
2:53 PM 80.1 °F 79.9 °F 53.1 °F 39% 29.97 in 10.0 mi Variable 5.8 mph - N/A   Clear
3:53 PM 80.1 °F 80.0 °F 54.0 °F 40% 29.94 in 10.0 mi SSW 9.2 mph - N/A   Clear
4:53 PM 80.1 °F - 52.0 °F 38% 29.93 in 10.0 mi SSE 3.5 mph - N/A   Clear
5:53 PM 79.0 °F - 55.0 °F 44% 29.91 in 10.0 mi SE 5.8 mph - N/A   Clear
6:53 PM 78.1 °F - 55.0 °F 45% 29.90 in 10.0 mi SSE 5.8 mph - N/A   Clear
7:53 PM 77.0 °F - 54.0 °F 45% 29.89 in 10.0 mi SE 6.9 mph - N/A   Clear
8:53 PM 71.1 °F - 60.1 °F 68% 29.86 in 10.0 mi East 3.5 mph - N/A   Clear
9:53 PM 66.0 °F - 59.0 °F 78% 29.85 in 10.0 mi Calm Calm - N/A   Clear
10:53 PM 64.9 °F - 60.1 °F 84% 29.86 in 10.0 mi Calm Calm - N/A   Clear
11:53 PM 64.0 °F - 59.0 °F 84% 29.84 in 10.0 mi Calm Calm - N/A   Clear